W9KOZ-6 Weather Reports


Display with metric or nautical units.
time (UTC)temp
F
wind
direction
speed
MPH
gust
MPH
rain 1hr
in
rain 24hr
in
rain mn
in
humidity
%
barometer
mb
20260906212929 85 121 6.0 14.0 0.00 0.03 0.02 26 1029.8
20260906212410 85 146 8.0 13.0 0.00 0.03 0.02 26 1029.8
20260906210929 85 149 8.0 20.0 0.00 0.03 0.02 26 1029.7
20260906210407 85 120 9.0 16.0 0.00 0.03 0.02 26 1029.7
20260906204926 85 103 6.0 13.0 0.00 0.03 0.02 26 1029.9
20260906203927 85 142 6.0 11.0 0.00 0.03 0.02 26 1029.9
20260906203838 85 165 6.0 15.0 0.00 0.03 0.02 26 1030.1
20260906201927 85 137 6.0 14.0 0.00 0.03 0.02 26 1029.9
20260906200923 85 0 7.0 12.0 0.00 0.03 0.02 26 1029.9
20260906195923 84 0 6.0 13.0 0.00 0.03 0.02 26 1029.9
20260906194924 84 0 6.0 12.0 0.00 0.03 0.02 26 1030.1
20260906193923 84 0 6.0 13.0 0.00 0.03 0.02 26 1030.1
20260906192924 84 0 7.0 16.0 0.00 0.03 0.02 26 1030.1
20260906191924 84 0 6.0 13.0 0.00 0.03 0.02 26 1029.9
20260906190923 83 202 5.0 13.0 0.00 0.03 0.02 26 1030.1
20260906190405 83 151 6.0 14.0 0.00 0.03 0.02 26 1029.9
20260906184923 82 144 7.0 13.0 0.00 0.03 0.02 26 1029.8
20260906183923 82 184 6.0 13.0 0.00 0.03 0.02 26 1029.9
20260906182923 83 151 5.0 13.0 0.00 0.03 0.02 26 1030.1
20260906181923 82 162 4.0 13.0 0.00 0.03 0.02 26 1030.1
20260906180923 82 181 5.0 12.0 0.00 0.03 0.02 26 1029.9
20260906175923 81 183 5.0 12.0 0.00 0.03 0.02 26 1029.9
20260906174921 81 85 6.0 11.0 0.00 0.03 0.02 26 1029.8
20260906173921 81 137 5.0 11.0 0.00 0.03 0.02 26 1029.8
20260906172921 80 177 6.0 11.0 0.00 0.03 0.02 26 1029.8
20260906171921 80 132 5.0 12.0 0.00 0.03 0.02 26 1029.8
20260906170921 80 219 5.0 11.0 0.00 0.03 0.02 26 1029.6
20260906165921 81 140 5.0 10.0 0.00 0.03 0.02 26 1029.8
20260906164921 80 155 4.0 10.0 0.00 0.03 0.02 26 1029.8
20260906163915 80 137 4.0 9.0 0.00 0.03 0.02 26 1029.7
20260906162916 80 110 4.0 8.0 0.00 0.03 0.02 26 1029.6
20260906161913 80 133 3.0 7.0 0.00 0.03 0.02 26 1029.6
20260906160910 79 107 3.0 8.0 0.00 0.03 0.02 26 1029.5
20260906155910 79 119 3.0 6.0 0.00 0.03 0.02 26 1029.5
20260906154910 78 55 3.0 7.0 0.00 0.03 0.02 26 1029.2
20260906153905 78 57 3.0 6.0 0.00 0.03 0.02 26 1029.1
20260906153335 77 4 3.0 6.0 0.00 0.03 0.02 26 1028.8
20260906151858 76 78 4.0 7.0 0.00 0.03 0.02 26 1028.8
20260906150859 75 39 3.0 8.0 0.00 0.03 0.02 26 1028.8
20260906145900 75 67 3.0 8.0 0.00 0.03 0.02 26 1028.7
20260906144859 74 10 2.0 4.0 0.00 0.03 0.02 26 1028.5
20260906143859 73 88 2.0 6.0 0.00 0.03 0.02 26 1028.4
20260906142900 72 95 2.0 6.0 0.00 0.03 0.02 26 1028.2
20260906141848 70 315 4.0 11.0 0.02 0.03 0.02 26 1027.9
20260906140844 69 334 4.0 11.0 0.02 0.03 0.02 26 1027.8
20260906135844 69 345 2.0 5.0 0.02 0.03 0.02 26 1027.8
20260906135322 68 12 2.0 4.0 0.02 0.03 0.02 26 1027.6
20260906133845 67 54 2.0 3.0 0.02 0.03 0.02 26 1027.5
20260906132830 64 0 2.0 4.0 0.02 0.03 0.02 26 1027.2
20260906131829 61 0 1.0 2.0 0.00 0.00 0.00 26 1026.9
20260906130830 60 0 1.0 2.0 0.00 0.00 0.00 26 1026.7
20260906125831 59 345 1.0 4.0 0.00 0.00 0.00 26 1026.5
20260906124829 59 277 1.0 3.0 0.00 0.01 0.00 26 1026.5
20260906123830 59 10 1.0 3.0 0.00 0.01 0.00 26 1026.5
20260906122830 59 8 1.0 2.0 0.00 0.01 0.00 26 1026.4
20260906121830 59 249 1.0 2.0 0.00 0.01 0.00 26 1026.5
20260906121251 59 13 1.0 2.0 0.00 0.01 0.00 26 1026.5
20260906115816 60 82 1.0 2.0 0.00 0.01 0.00 26 1026.5
20260906114817 60 339 1.0 2.0 0.00 0.01 0.00 26 1026.5
20260906113817 60 67 1.0 2.0 0.00 0.01 0.00 26 1026.5
20260906112817 61 244 1.0 2.0 0.00 0.01 0.00 26 1026.7
20260906111802 61 241 1.0 2.0 0.00 0.01 0.00 26 1026.7
20260906110803 61 283 1.0 2.0 0.00 0.01 0.00 26 1026.8
20260906105804 62 176 1.0 2.0 0.00 0.01 0.00 26 1026.7
20260906104803 62 90 1.0 2.0 0.00 0.01 0.00 26 1026.8
20260906103803 62 29 3.0 5.0 0.00 0.01 0.00 26 1026.9
20260906102803 63 129 2.0 4.0 0.00 0.01 0.00 26 1026.9
20260906101804 62 278 3.0 5.0 0.00 0.01 0.00 26 1026.9
20260906100748 62 295 2.0 4.0 0.00 0.01 0.00 26 1026.9
20260906095749 62 111 1.0 3.0 0.00 0.01 0.00 26 1026.9
20260906095226 62 126 1.0 2.0 0.00 0.01 0.00 26 1026.9
20260906093751 62 312 1.0 3.0 0.00 0.01 0.00 26 1026.9
20260906092735 62 0 2.0 3.0 0.00 0.01 0.00 26 1026.9
20260906091735 62 0 0.0 2.0 0.00 0.01 0.00 26 1026.8
20260906090735 62 0 1.0 2.0 0.00 0.01 0.00 26 1026.8
20260906090217 62 0 2.0 4.0 0.00 0.01 0.00 26 1026.8
20260906084735 62 267 2.0 4.0 0.00 0.01 0.00 26 1026.8
20260906083735 63 107 1.0 3.0 0.00 0.01 0.00 26 1026.8
20260906082721 63 313 1.0 4.0 0.00 0.01 0.00 26 1026.9
20260906081722 65 77 3.0 4.0 0.00 0.01 0.00 26 1027.0
20260906080707 67 113 2.0 4.0 0.00 0.01 0.00 26 1027.2
20260906075707 67 334 2.0 4.0 0.00 0.01 0.00 26 1027.3
20260906075634 67 301 1.0 2.0 0.00 0.01 0.00 26 1027.3
20260906073706 67 27 2.0 5.0 0.00 0.01 0.00 26 1027.2
20260906072706 67 6 3.0 8.0 0.00 0.01 0.00 26 1027.3
20260906071654 67 317 3.0 6.0 0.00 0.01 0.00 26 1027.3
20260906070655 66 334 3.0 5.0 0.00 0.01 0.00 26 1027.3
20260906065652 65 322 1.0 4.0 0.00 0.01 0.00 26 1027.0
20260906064652 66 44 1.0 2.0 0.00 0.01 0.00 26 1027.0
20260906063652 66 291 1.0 3.0 0.00 0.01 0.00 26 1027.2
20260906062652 65 296 2.0 3.0 0.00 0.01 0.00 26 1027.0
20260906061637 65 0 2.0 4.0 0.00 0.01 0.00 26 1027.0
20260906060637 64 0 1.0 2.0 0.00 0.01 0.00 26 1026.9
20260906055637 64 0 2.0 5.0 0.00 0.01 0.01 26 1026.9
20260906054637 66 0 1.0 3.0 0.00 0.01 0.01 26 1027.0
20260906053636 66 348 1.0 3.0 0.00 0.01 0.01 26 1027.0
20260906053119 67 221 2.0 4.0 0.00 0.01 0.01 26 1027.2
20260906051636 68 322 2.0 5.0 0.00 0.01 0.01 26 1027.2
20260906051129 69 272 1.0 3.0 0.00 0.01 0.01 26 1027.2
20260906045627 69 301 2.0 6.0 0.00 0.01 0.01 26 1027.3
20260906044624 69 300 2.0 3.0 0.00 0.01 0.01 26 1027.3
20260906044058 69 294 2.0 3.0 0.00 0.01 0.01 26 1027.3
20260906042624 70 261 1.0 2.0 0.00 0.01 0.01 26 1027.3
20260906041625 71 328 2.0 3.0 0.00 0.01 0.01 26 1027.4
20260906040610 71 302 1.0 2.0 0.00 0.01 0.01 26 1027.4
20260906035610 72 344 1.0 2.0 0.00 0.01 0.01 26 1027.4
20260906034610 72 276 2.0 4.0 0.00 0.01 0.01 26 1027.9
20260906033610 73 245 1.0 2.0 0.00 0.01 0.01 26 1027.5
20260906032610 73 60 2.0 6.0 0.00 0.01 0.01 26 1027.6
20260906031604 74 301 4.0 6.0 0.00 0.01 0.01 26 1027.6
20260906030558 74 280 5.0 7.0 0.00 0.01 0.01 26 1027.8
20260906025556 75 253 2.0 4.0 0.00 0.01 0.01 26 1027.6
20260906024556 74 191 2.0 5.0 0.00 0.01 0.01 26 1027.6
20260906023546 74 112 3.0 7.0 0.00 0.01 0.01 26 1027.6
20260906022547 73 72 6.0 10.0 0.00 0.01 0.01 26 1027.8
20260906021540 75 0 2.0 5.0 0.00 0.00 0.00 26 1028.6
20260906020541 75 0 2.0 5.0 0.00 0.00 0.00 26 1027.6
20260906015541 76 0 4.0 5.0 0.00 0.00 0.00 26 1027.6
20260906014541 77 290 2.0 5.0 0.00 0.00 0.00 26 1027.6
20260906013541 77 0 1.0 2.0 0.00 0.00 0.00 26 1027.8
20260906012541 79 315 1.0 2.0 0.00 0.00 0.00 26 1027.9
20260906011540 80 345 1.0 2.0 0.00 0.00 0.00 26 1028.0
20260906010542 81 34 3.0 5.0 0.00 0.00 0.00 26 1028.1
20260906005533 82 7 4.0 7.0 0.00 0.00 0.00 26 1028.2
20260906005011 83 10 4.0 7.0 0.00 0.00 0.00 26 1028.5
20260906003532 83 19 3.0 7.0 0.00 0.01 0.00 26 1028.6
20260906002529 83 285 2.0 4.0 0.00 0.01 0.00 26 1028.6
20260906001529 83 315 2.0 4.0 0.00 0.01 0.00 26 1028.6
20260906000528 83 324 2.0 4.0 0.00 0.01 0.00 26 1028.6
20260905235528 84 338 3.0 6.0 0.00 0.01 0.00 26 1028.8
20260905234528 83 291 2.0 4.0 0.00 0.01 0.00 26 1028.8
20260905233514 83 322 1.0 3.0 0.00 0.01 0.00 26 1028.6
20260905232957 83 2 2.0 3.0 0.00 0.01 0.00 26 1028.6
20260905231513 82 326 2.0 5.0 0.00 0.01 0.00 26 1028.6
20260905230950 82 323 4.0 6.0 0.00 0.01 0.00 26 1028.8
20260905225514 82 344 3.0 6.0 0.00 0.01 0.00 26 1028.8
20260905224512 82 284 4.0 7.0 0.00 0.01 0.00 26 1029.0
20260905223508 82 277 4.0 8.0 0.00 0.01 0.00 26 1028.7
20260905222509 83 312 4.0 7.0 0.00 0.01 0.00 26 1029.2
20260905221956 82 334 5.0 8.0 0.00 0.01 0.00 26 1029.0
20260905220948 82 302 5.0 9.0 0.00 0.01 0.00 26 1028.7
20260905215509 82 339 4.0 7.0 0.00 0.01 0.00 26 1028.7
20260905214509 82 22 2.0 6.0 0.00 0.01 0.00 26 1029.0